Tracking 35331 objects as of 14-Sep-2026
HD Live streaming from Space Station
objects crossing your sky now

SL-7 DEB


SL-7 DEB is no longer on orbit


NORAD ID: 3632
Int'l Code: 1968-117E
Launch date: December 19, 1968
Source: Commonwealth of Independent States (former USSR) (CIS)
Launch site: PLESETSK MISSILE AND SPACE COMPLEX (PKMTR)
Decay date: 1969-01-22

Note: This is SATELLITE DEBRIS
Your satellite tracking list
Your tracking list is empty




NASA's NSSDC Master Catalog

Two Line Element Set (TLE):
1 03632U 68117  E 69017.47276725  .01507792 +00000-0 +00000-0 0  9991
2 03632 071.1000 011.5776 0043771 002.2106 357.9187 16.09746913004320
Source of the keplerian elements: AFSPC